When you browse on this site, cookies collect data to enhance your experience and personalize the content and advertising you see.
Visit our Privacy Policy to learn more. By continuing to use the site, you agree to this use of cookies and data.
  • In Hungary
  • List of Countries
  • For 7 days
  • Water Temperature
  • Satellite Maps
  • Weather Map
  • News
  • Weather Widgets
  • user-avatar
    Login

    Hourly Weather Kota Kinabalu

    Today, 24 January, Thursday

    Time Temperature Precipitation Wind Pressure Humidity
    00:00 +27°C° 0.1 mm 3 mps 756 mmHg 86%
    01:00 +27°C° 0.1 mm 3 mps 756 mmHg 86%
    02:00 +27°C° 0 mm 3 mps 756 mmHg 87%
    03:00 +27°C° 0.1 mm 3 mps 756 mmHg 88%
    04:00 +27°C° 0.1 mm 2 mps 756 mmHg 88%
    05:00 +27°C° 0.1 mm 2 mps 756 mmHg 88%
    06:00 +27°C° 0 mm 2 mps 756 mmHg 84%
    07:00 +28°C° 0 mm 2 mps 756 mmHg 81%
    08:00 +29°C° 0 mm 4 mps 757 mmHg 78%
    09:00 +30°C° 0.1 mm 4 mps 757 mmHg 72%
    10:00 +33°C° 0.1 mm 4 mps 757 mmHg 66%
    11:00 +34°C° 0.1 mm 4 mps 757 mmHg 59%
    12:00 +34°C° 0.2 mm 4 mps 756 mmHg 62%
    13:00 +34°C° 0.2 mm 4 mps 756 mmHg 64%
    14:00 +34°C° 0.2 mm 4 mps 755 mmHg 66%
    15:00 +33°C° 0.3 mm 4 mps 755 mmHg 68%
    16:00 +32°C° 0.3 mm 4 mps 755 mmHg 71%
    17:00 +32°C° 0.3 mm 4 mps 755 mmHg 74%
    18:00 +30°C° 0.1 mm 4 mps 755 mmHg 78%
    19:00 +29°C° 0.1 mm 4 mps 756 mmHg 83%
    20:00 +28°C° 0.1 mm 3 mps 756 mmHg 88%
    21:00 +28°C° 0 mm 3 mps 756 mmHg 88%
    22:00 +28°C° 0 mm 3 mps 756 mmHg 88%
    23:00 +27°C° 0 mm 3 mps 757 mmHg 88%

    Tomorrow, 25 January, Friday

    Time Temperature Precipitation Wind Pressure Humidity
    00:00 +27°C° 0 mm 2 mps 756 mmHg 88%
    01:00 +27°C° 0 mm 2 mps 756 mmHg 88%
    02:00 +27°C° 0 mm 2 mps 756 mmHg 88%
    03:00 +27°C° 0 mm 2 mps 756 mmHg 89%
    04:00 +27°C° 0 mm 2 mps 756 mmHg 89%
    05:00 +27°C° 0 mm 1 mps 756 mmHg 89%
    06:00 +28°C° 0 mm 1 mps 756 mmHg 85%
    07:00 +29°C° 0 mm 1 mps 756 mmHg 81%
    08:00 +29°C° 0 mm 1 mps 757 mmHg 77%
    09:00 +31°C° 0 mm 1 mps 757 mmHg 72%
    10:00 +32°C° 0 mm 2 mps 757 mmHg 66%
    11:00 +34°C° 0 mm 2 mps 757 mmHg 61%
    12:00 +34°C° 0.1 mm 2 mps 756 mmHg 63%
    13:00 +33°C° 0.1 mm 3 mps 756 mmHg 65%
    14:00 +33°C° 0.1 mm 3 mps 755 mmHg 67%
    15:00 +31°C° 0.1 mm 3 mps 755 mmHg 71%
    16:00 +31°C° 0.1 mm 3 mps 755 mmHg 75%
    17:00 +30°C° 0.1 mm 3 mps 754 mmHg 79%
    18:00 +29°C° 0.1 mm 3 mps 755 mmHg 82%
    19:00 +29°C° 0.1 mm 3 mps 756 mmHg 84%
    20:00 +28°C° 0.1 mm 3 mps 756 mmHg 87%
    21:00 +28°C° 0.1 mm 2 mps 756 mmHg 86%
    22:00 +28°C° 0.1 mm 2 mps 757 mmHg 86%
    23:00 +28°C° 0.1 mm 2 mps 757 mmHg 85%

    Day after tomorrow, 26 January, Saturday

    Time Temperature Precipitation Wind Pressure Humidity
    00:00 +28°C° 0.1 mm 2 mps 757 mmHg 85%
    01:00 +28°C° 0.1 mm 2 mps 756 mmHg 85%
    02:00 +28°C° 0.1 mm 1 mps 756 mmHg 86%
    03:00 +27°C° 0.3 mm 1 mps 756 mmHg 87%
    04:00 +27°C° 0.3 mm 1 mps 756 mmHg 88%
    05:00 +27°C° 0.3 mm 1 mps 755 mmHg 89%
    06:00 +27°C° 1.1 mm 1 mps 756 mmHg 90%
    07:00 +27°C° 1.1 mm 1 mps 756 mmHg 91%
    08:00 +27°C° 1.1 mm 1 mps 757 mmHg 91%
    09:00 +27°C° 1.3 mm 1 mps 757 mmHg 91%
    10:00 +27°C° 1.3 mm 1 mps 757 mmHg 91%
    11:00 +25°C° 1.3 mm 0 mps 757 mmHg 91%
    12:00 +26°C° 0.4 mm 0 mps 757 mmHg 90%
    13:00 +26°C° 0.4 mm 0 mps 756 mmHg 89%
    14:00 +26°C° 0.4 mm 0 mps 755 mmHg 87%
    15:00 +28°C° 1.9 mm 1 mps 755 mmHg 89%
    16:00 +27°C° 1.9 mm 1 mps 755 mmHg 90%
    17:00 +27°C° 1.9 mm 2 mps 754 mmHg 92%
    18:00 +27°C° 2.9 mm 2 mps 755 mmHg 92%
    19:00 +27°C° 2.9 mm 2 mps 756 mmHg 92%
    20:00 +27°C° 2.9 mm 2 mps 756 mmHg 92%
    21:00 +27°C° 1.6 mm 3 mps 756 mmHg 92%
    22:00 +27°C° 1.6 mm 3 mps 757 mmHg 92%
    23:00 +27°C° 1.6 mm 3 mps 757 mmHg 92%

    27 January, Sunday

    Time Temperature Precipitation Wind Pressure Humidity
    00:00 +27°C° 1.4 mm 3 mps 757 mmHg 92%
    01:00 +27°C° 1.4 mm 2 mps 756 mmHg 92%
    02:00 +27°C° 1.4 mm 2 mps 756 mmHg 92%
    03:00 +26°C° 1.1 mm 2 mps 756 mmHg 92%
    04:00 +26°C° 1.1 mm 2 mps 756 mmHg 92%
    05:00 +26°C° 1.1 mm 2 mps 756 mmHg 92%
    06:00 +27°C° 0.5 mm 2 mps 756 mmHg 91%
    07:00 +27°C° 0.5 mm 2 mps 757 mmHg 90%
    08:00 +27°C° 0.5 mm 2 mps 757 mmHg 89%
    09:00 +27°C° 0.9 mm 1 mps 757 mmHg 87%
    10:00 +28°C° 0.9 mm 1 mps 758 mmHg 85%
    11:00 +29°C° 0.9 mm 1 mps 758 mmHg 83%
    12:00 +28°C° 1.6 mm 1 mps 757 mmHg 84%
    13:00 +28°C° 1.6 mm 1 mps 757 mmHg 85%
    14:00 +28°C° 1.6 mm 1 mps 756 mmHg 87%
    15:00 +28°C° 1.5 mm 1 mps 756 mmHg 88%
    16:00 +27°C° 1.5 mm 1 mps 755 mmHg 90%
    17:00 +27°C° 1.5 mm 1 mps 755 mmHg 92%
    18:00 +27°C° 1.2 mm 1 mps 756 mmHg 92%
    19:00 +26°C° 1.2 mm 1 mps 756 mmHg 92%
    20:00 +26°C° 1.2 mm 1 mps 757 mmHg 92%
    21:00 +26°C° 0.3 mm 1 mps 757 mmHg 92%
    22:00 +26°C° 0.3 mm 1 mps 758 mmHg 91%
    23:00 +26°C° 0.3 mm 1 mps 758 mmHg 91%

    28 January, Monday

    Time Temperature Precipitation Wind Pressure Humidity
    00:00 +26°C° 0.1 mm 1 mps 757 mmHg 91%
    01:00 +26°C° 0.1 mm 2 mps 757 mmHg 91%
    02:00 +26°C° 0.1 mm 2 mps 756 mmHg 91%
    03:00 +26°C° 0.1 mm 2 mps 756 mmHg 90%
    04:00 +26°C° 0.1 mm 2 mps 756 mmHg 90%
    05:00 +26°C° 0.1 mm 2 mps 755 mmHg 90%
    06:00 +26°C° 0 mm 2 mps 756 mmHg 88%
    07:00 +27°C° 0 mm 2 mps 756 mmHg 86%
    08:00 +27°C° 0 mm 2 mps 757 mmHg 85%
    09:00 +29°C° 0 mm 2 mps 757 mmHg 77%
    10:00 +31°C° 0 mm 2 mps 757 mmHg 69%
    11:00 +34°C° 0 mm 2 mps 757 mmHg 61%
    12:00 +33°C° 0.1 mm 3 mps 757 mmHg 63%
    13:00 +33°C° 0.1 mm 3 mps 756 mmHg 65%
    14:00 +33°C° 0.1 mm 3 mps 755 mmHg 67%
    15:00 +32°C° 0.4 mm 4 mps 755 mmHg 73%
    16:00 +30°C° 0.4 mm 4 mps 755 mmHg 78%
    17:00 +29°C° 0.4 mm 4 mps 755 mmHg 84%
    18:00 +28°C° 0.4 mm 4 mps 756 mmHg 86%
    19:00 +28°C° 0.4 mm 4 mps 756 mmHg 87%
    20:00 +27°C° 0.4 mm 3 mps 757 mmHg 89%
    21:00 +27°C° 0.1 mm 3 mps 757 mmHg 89%
    22:00 +27°C° 0.1 mm 3 mps 757 mmHg 88%
    23:00 +27°C° 0.1 mm 2 mps 757 mmHg 88%

    29 January, Tuesday

    Time Temperature Precipitation Wind Pressure Humidity
    00:00 +27°C° 0 mm 2 mps 757 mmHg 87%
    01:00 +26°C° 0 mm 2 mps 756 mmHg 87%
    02:00 +26°C° 0 mm 2 mps 755 mmHg 87%
    03:00 +26°C° 0 mm 2 mps 755 mmHg 86%
    04:00 +26°C° 0 mm 2 mps 755 mmHg 86%
    05:00 +26°C° 0 mm 2 mps 755 mmHg 85%
    06:00 +26°C° 0.1 mm 2 mps 756 mmHg 85%
    07:00 +27°C° 0.1 mm 2 mps 756 mmHg 85%
    08:00 +27°C° 0.1 mm 2 mps 756 mmHg 85%
    09:00 +27°C° 0.2 mm 2 mps 756 mmHg 84%
    10:00 +28°C° 0.2 mm 2 mps 757 mmHg 83%
    11:00 +29°C° 0.2 mm 2 mps 757 mmHg 82%
    12:00 +28°C° 2.6 mm 1 mps 756 mmHg 86%
    13:00 +27°C° 2.6 mm 1 mps 755 mmHg 90%
    14:00 +26°C° 2.6 mm 1 mps 755 mmHg 94%
    15:00 +26°C° 5.8 mm 1 mps 755 mmHg 94%
    16:00 +26°C° 5.8 mm 1 mps 755 mmHg 94%
    17:00 +26°C° 5.8 mm 1 mps 755 mmHg 94%
    18:00 +26°C° 3.5 mm 2 mps 755 mmHg 94%
    19:00 +26°C° 3.5 mm 2 mps 756 mmHg 93%
    20:00 +26°C° 3.5 mm 2 mps 756 mmHg 93%
    21:00 +26°C° 2.2 mm 2 mps 757 mmHg 93%
    22:00 +26°C° 2.2 mm 2 mps 757 mmHg 93%
    23:00 +26°C° 2.2 mm 2 mps 757 mmHg 93%
    Show more